Starlink 32519

operational
NORAD ID: 62317 Int'l Des: 2024-239 Owner: SPXS Country: US Constellation: starlink
LEOCIRCULAR

Über Starlink 32519

Beschreibung wird geladen...

Live-Position

3D-Globus wird geladen...

Nächste Überflüge

Höhenverlauf

Altitude vs Time

uPlot chart will show altitude changes over time

Zweizeiliger Elementsatz

1 62317U 24239S 25308.64644112 .00016389 00000-0 56422-3 0 9994
2 62317 53.1609 41.6356 0001044 105.5683 254.5433 15.30201253 50426
Epoch: 4. Nov. 2025 • Age: 17 hours

Aktueller Status

Höhe 490.4 km
Geschwindigkeit 7.62 km/s
Subsatellitenpunkt -43.80°S, 95.69°E
Startdatum 13. Dez. 2024
Alter 0.8 years
Typ internet

Technische Details

Klassifizierung Payload
Masse 730.00 kg
Trockenmasse 700.00 kg
Gesamtmasse 730.00 kg
Länge 0.30 m
Durchmesser 4.10 m
Spannweite 29.00 m
Form Box + pan
Hersteller SPXS
Bus-Typ Starlink V2M
Phasenstatus In Orbit
Besitzer/Staat SPXS/US

Große Konstellationen

Loading constellations...